Regional Weather Roundup
Issued by NWS

Home | Current Version | Previous Version | Text Only | Print | Product List | Glossary Off
Versions: 1 2 3 4 5 6 7 8 9 10 11 12 13 14 15 16 17 18 19 20 21 22 23 24 25 26 27 28 29 30 31 32 33 34 35 36 37 38 39 40 41 42 43 44 45 46 47 48 49 50

000
ASUS45 KTFX 282019
RWRMT
MONTANA HOURLY WEATHER ROUNDUP
NATIONAL WEATHER SERVICE GREAT FALLS MT
119 PM MST SAT FEB 28 2015

NOTE: "FAIR" INDICATES FEW OR NO CLOUDS BELOW 12000 FEET WITH NO
SIGNIFICANT WEATHER AND/OR OBSTRUCTIONS TO VISIBILITY.

* THESE STATIONS ARE NOT UNDER NWS QUALITY CONTROL. THEY DO NOT
   REPORT WEATHER SUCH AS PRECIPITATION OR FOG.

MTZ001>007-043-282100-
WEST OF THE DIVIDE
CITY           SKY/WX    TMP DP  RH WIND       PRES   REMARKS
KALISPELL      SUNNY     32   0  25 N7        30.15F WCI  25
MISSOULA       SUNNY     30   7  38 SE15      30.11F WCI  19
BUTTE          PTSUNNY   18   7  62 VRB6      29.98F WCI  10
MULLAN PASS    SUNNY     21   3  45 CALM      29.95R
* ANACONDA     SUNNY     18   3  52 N3         N/A
* ESSEX        N/A       27   0  31 S5         N/A   WCI  21
* EUREKA APT   SUNNY     30   0  27 NE5       30.19F WCI  25
* HAMILTON APT SUNNY     28   5  37 NW8       30.05F WCI  20
* LIBBY APT    SUNNY     34   0  23 CALM      30.18F
* LINCOLN      N/A       23   4  44 E10        N/A   WCI  13
* LOOKOUT PASS N/A       25   2  37 NW9G17     N/A   WCI  16
* POLSON       N/A       29   1  30 N3G8       N/A
* RONAN APT    SUNNY     30   9  41 NW7        N/A   WCI  23
* SEELEY LAKE  N/A       29   5  36 S2G7       N/A
* THOMP F APT  SUNNY     23   7  50 NW10G25    N/A   WCI  13
* YAAK HILL    N/A       39   2  21 E3         N/A
$$

MTZ008-052>055-282100-
SOUTHWEST MONTANA
CITY           SKY/WX    TMP DP  RH WIND       PRES   REMARKS
BOZEMAN        CLOUDY    21   9  60 S5        30.05F WCI  14
DILLON         CLOUDY    21   7  55 NE10      29.96F WCI  10
* W YELLOWSTON PTCLDY    23   5  46 N4         N/A
* THREE FORKS  PTCLDY    25   5  42 N/A        N/A
* BOULDER HILL N/A       12   2  64 N12G17     N/A   WCI  -2
* MONIDA PASS  N/A       18   8  65 NW14G22    N/A   WCI   4
* RAYNOLDS PAS N/A        7   6  96 N18        N/A   WCI -12
* WHITEHALL    N/A       25   6  44 E9G16      N/A   WCI  16
* WISE RIVER   N/A       21   3  45 SE8G15     N/A   WCI  11
$$

MTZ009>010-012-014-046-048-049-054-282100-
EAST SLOPES AND CENTRAL MONTANA
CITY           SKY/WX    TMP DP  RH WIND       PRES   REMARKS
CUT BANK       SUNNY     19  10  68 NW13      30.12F WCI   6
GREAT FALLS    PTSUNNY   19   9  65 W5        30.15F WCI  12
HELENA         PTSUNNY   23   7  50 NW8       30.12F WCI  14
MALMSTROM AFB  PTSUNNY   18   9  68 W6        30.17F WCI  10
* CONRAD       SUNNY     19  10  68 W10G15     N/A   WCI   8
* DEARBORN     N/A       21   5  50 N/A        N/A
* EAST GLACIER N/A       16   2  54 E10        N/A   WCI   4
* MONARCH      N/A       11   3  70 NW11G17    N/A   WCI  -3
* PENDROY      N/A       18   6  59 N12G17     N/A   WCI   5
* ROGERS PASS  N/A       15   3  59 SW3        N/A
* SWEET GRASS  N/A       17   9  71 NW17       N/A   WCI   1
* WHITE SULPH  N/A       19   4  52 W5G12      N/A   WCI  12
$$

MTZ011-013-016-021-035-040-045-047-050-051-282100-
NORTH CENTRAL MONTANA
CITY           SKY/WX    TMP DP  RH WIND       PRES   REMARKS
HAVRE          CLOUDY    21   9  60 SW13      30.19F WCI   8
LEWISTOWN      CLOUDY    16   7  67 W6        30.10F WCI   7
* N BAR RANCH  SUNNY     19   7  59 N12       30.05F WCI   6
* CHINOOK      SUNNY     23   7  50 W17G23    30.18F WCI   9
* FORT BENTON  SUNNY     19   9  65 W10       30.22F WCI   8
* CHESTER      N/A       20   7  57 NW10G25    N/A   WCI   9
* DENTON       N/A       16   7  67 NW4        N/A
* GEYSER       N/A       15   7  70 W19G24     N/A   WCI  -2
* JUDITH GAP   N/A       12   8  84 N17        N/A   WCI  -5
* LOMA         N/A       18   8  65 W13G21     N/A   WCI   5
$$

MTZ017>020-022>027-061-062-282100-
NORTHEAST MONTANA
CITY           SKY/WX    TMP DP  RH WIND       PRES   REMARKS
GLASGOW        SUNNY     19   1  45 NW14      30.16F WCI   5
GLENDIVE       CLOUDY    18   5  57 W13G18    30.15F WCI   5
JORDAN         SUNNY     21   7  55 NW14      30.16F WCI   8
SIDNEY         CLOUDY    16   1  51 NW15      30.20S WCI   1
WOLF POINT     PTSUNNY   21   5  50 NW14      30.19F WCI   8
* BEAVER HILL  N/A       16   6  64 W14G25     N/A   WCI   2
* CIRCLE       N/A       16   8  71 W11G19     N/A   WCI   3
* LINDSAY DVD  N/A       13   5  70 W18G27     N/A   WCI  -4
* NAVAJO       N/A       11   2  67 NW12G17    N/A   WCI  -4
* PLENTYWOOD A SUNNY     10   1  67 NW14      30.13F WCI  -6
* POPLAR APT   PTCLDY    16   1  51 W10       30.18F WCI   4
* SACO         N/A       21   1  41 W10G19     N/A   WCI  10
$$

MTZ028>042-056>058-282100-
SOUTHCENTRAL AND SOUTHEAST MONTANA
CITY           SKY/WX    TMP DP  RH WIND       PRES   REMARKS
BAKER          CLOUDY    18   5  57 NW17      30.11F WCI   3
BILLINGS       PTSUNNY   23   9  55 VRB3      30.10F
LIVINGSTON     PTCLDY    19   9  65 N3        30.04F
MILES CITY     CLOUDY    19   9  65 NW14      30.16F WCI   5
* BIG TIMBER A PTCLDY    21   9  60 SW3       30.05F
* FORSYTH APT  SUNNY     21   9  60 W13       30.16F WCI   8
* LAUREL APT   SUNNY     21   5  50 N/A        N/A
* ROUNDUP APT  SUNNY     23   5  46 N/A        N/A
* ALZADA       N/A       17   7  65 W12        N/A   WCI   4
* HYSHAM       N/A       19   7  59 W9         N/A   WCI   8
* LAME DEER    N/A       13   5  70 NW9G15     N/A   WCI   1
* REED POINT   N/A       27  12  53 S2         N/A
* ROSCOE HILL  N/A       21   0  40 SE2        N/A
$$

REGIONAL REPORTS...DAKOTAS
CITY           SKY/WX    TMP DP  RH WIND       PRES   REMARKS
WILLISTON      PTSUNNY   16   1  51 NW16      30.17F WCI   1
DICKINSON      PTSUNNY   19   3  49 NW22      30.08S WCI   2
BEACH          LGT SNOW  16   9  74 W20       30.12F WCI  -1
CROSBY         CLOUDY    10   5  80 NW20      30.14F WCI  -9
TIOGA          LGT SNOW  10   5  80 NW17G22   30.14F WCI  -8
WATFORD CITY   LGT SNOW  14   5  67 NW10G20   30.13F WCI   1
BISMARCK       PTSUNNY   21   7  55 NW17      30.13F WCI   7
GRAND FORKS    CLOUDY    21  12  68 S18       30.12F WCI   6
FARGO          CLOUDY    27  12  53 S22G30    30.17F WCI  13
BUFFALO SD     PTCLDY    18   7  62 NW24      30.03F
RAPID CITY     SUNNY     21  12  68 N18G28    30.09F WCI   6
$$

REGIONAL REPORTS...WYOMING/IDAHO/WASHINGTON
CITY           SKY/WX    TMP DP  RH WIND       PRES   REMARKS
GILLETTE       CLOUDY    18   9  68 VRB7      30.05F WCI   9
SHERIDAN       CLOUDY    18   7  62 W5        30.09F WCI  11
CODY           PTCLDY    19  12  74 NE9       29.98F WCI   8
YELLOWSTONE LA PTCLDY    18   3  52 E3        29.80F
SALMON         PTCLDY    34  10  37 E5        29.94S WCI  29
MULLAN PASS    SUNNY     21   3  45 CALM      29.95S
SAND POINT     SUNNY     37   0  21 N14G22    30.16S WCI  28
SPOKANE        SUNNY     37   3  24 E10       30.11S WCI  30
$$

REGIONAL REPORTS...ALBERTA
CITY           SKY/WX    TMP DP  RH WIND       PRES   REMARKS
LETHBRIDGE     SUNNY     25   9  50 W20       30.16F WCI  11
MEDICINE HAT   PTSUNNY   23  16  74 SW13      30.18F WCI  11
EDMONTON       SUNNY     23  10  57 W12       30.14F WCI  11
WATERTON GATE  N/A       30   3  31 NW3        N/A
CARDSTON       N/A       21   9  60 W8         N/A   WCI  11
MILK RIVER     N/A       21  10  62 NW15       N/A   WCI   7
$$

REGIONAL REPORTS...SASKATCHEWAN
CITY           SKY/WX    TMP DP  RH WIND       PRES   REMARKS
SWIFT CURRENT  SUNNY     16   7  67 W21       30.07F WCI  -1
REGINA         CLOUDY     9   7  91 W17       30.12F WCI  -9
VAL MARIE      N/A       21   1  41 NW16       N/A   WCI   7
ASSINIBOIA     N/A       10   1  67 W16        N/A   WCI  -7
CORONACH       N/A       12   3  67 NW13       N/A   WCI  -3

$$




USA.gov is the U.S. government's official web portal to all federal, state and local government web resources and services.